This demonstration page uses our WeatherBlox Daily Observations layout. Learn more.

38.89511, -77.03637

Hourly Observations for December 16, 2016

Temp ( °F °C ) Dew Point ( °F °C ) Humidity (%) Winds ( mph kmh ) Pressure ( in mb ) Visibility ( mi km ) Precip ( " mm )
12:52 am 00:52 Clear 18 -7.8 -5 -20.6 35 35 WSW 6 9 30.42 1030 10 16.0934 0 0
1:52 am 01:52 Partly Cloudy 18 -7.8 -5 -20.6 35 35 Calm 30.43 1030 10 16.0934 0 0
2:52 am 02:52 Mostly Clear 18 -7.8 -5 -20.6 35 35 WNW 8 13 30.45 1031 10 16.0934 0 0
3:52 am 03:52 Mostly Clear 17 -8.3 -5 -20.6 37 37 W 9 15 30.46 1031 10 16.0934 0 0
4:52 am 04:52 Partly Cloudy 18 -7.8 -5 -20.6 35 35 WNW 8 13 30.45 1031 10 16.0934 0 0
5:52 am 05:52 Partly Cloudy 18 -7.8 -5 -20.6 35 35 Calm 30.48 1032 10 16.0934 0 0
6:52 am 06:52 Mostly Cloudy 19 -7.2 -6 -21.1 32 32 N 9 15 30.49 1032 10 16.0934 0 0
7:52 am 07:52 Cloudy 19 -7.2 -6 -21.1 32 32 VRB 6 9 30.5 1033 10 16.0934 0 0
8:52 am 08:52 Cloudy 21 -6.1 -4 -20 33 33 N 13 20 30.5 1033 10 16.0934 0 0
9:52 am 09:52 Cloudy 23 -5 -3 -19.4 32 32 NW 7 11 30.53 1034 10 16.0934 0 0
10:52 am 10:52 Cloudy 24 -4.4 -3 -19.4 30 30 WSW 6 9 30.53 1034 10 16.0934 0 0
11:52 am 11:52 Cloudy 25 -3.9 -3 -19.4 29 29 Calm 30.51 1033 10 16.0934 0 0
12:52 pm 12:52 Cloudy 26 -3.3 -2 -18.9 29 29 WSW 6 9 30.5 1033 10 16.0934 0 0
1:52 pm 13:52 Cloudy 26 -3.3 -1 -18.3 31 31 SE 3 6 30.48 1032 10 16.0934 0 0
2:52 pm 14:52 Cloudy 27 -2.8 1 -17.2 32 32 S 6 9 30.45 1031 10 16.0934 0 0
3:52 pm 15:52 Cloudy 27 -2.8 1 -17.2 32 32 S 8 13 30.46 1032 10 16.0934 0 0
4:52 pm 16:52 Cloudy 27 -2.8 3 -16.1 35 35 SSW 7 11 30.45 1031 10 16.0934 0 0
5:52 pm 17:52 Cloudy 27 -2.8 4 -15.6 37 37 S 9 15 30.43 1031 10 16.0934 0 0
6:52 pm 18:52 Cloudy 27 -2.8 7 -13.9 43 43 S 9 15 30.42 1030 10 16.0934 0 0
7:52 pm 19:52 Cloudy 28 -2.2 9 -12.8 44 44 SSE 10 17 30.42 1030 10 16.0934 0 0
8:52 pm 20:52 Cloudy 28 -2.2 9 -12.8 44 44 S 10 17 30.39 1029 10 16.0934 0 0
9:52 pm 21:52 Cloudy 28 -2.2 8 -13.3 43 43 S 14 22 30.37 1029 10 16.0934 0 0
10:52 pm 22:52 Cloudy 29 -1.7 8 -13.3 41 41 S 13 20 30.34 1027 10 16.0934 0 0
11:52 pm 23:52 Cloudy 30 -1.1 5 -15 34 34 SSW 14 22 30.33 1027 10 16.0934 0 0

Powered by AerisWeather